Wind_Speed
7 7 7 6 5 5 6 6 6 6 5 4 3 3 3 4 5 6 7 9 10 12 13 14 14 14 14 14 13 12 11 10 9 9 10 12 13 13 12 11 10 9 7 7 6 4 3 0 3 3 5 8 8 8 8 9 9 9 11 6 14 23 23 24 24 22 20 19 20 17 13 11 11 12 11 7 3 2 7 9 12 12 8 10 12 11 12 12
8 8 8 7 6 5 5 5 6 6 5 5 4 3 2 3 4 5 6 7 8 10 11 13 14 14 15 14 14 13 12 11 9 9 10 11 13 13 13 13 12 10 8 8 7 5 3 1 3 4 4 5 7 8 7 7 9 9 10 9 8 20 23 24 25 22 19 19 20 17 14 11 11 11 11 8 3 4 9 10 14 12 7 11 14 12 13 12
9 9 8 7 6 6 5 5 5 5 5 5 4 3 2 1 2 4 5 6 7 8 10 11 13 14 15 15 14 14 13 11 10 9 10 11 12 12 13 14 13 12 11 10 9 8 5 2 2 3 3 4 6 7 7 7 8 9 8 9 3 14 23 24 24 23 19 20 19 18 16 13 12 10 10 8 3 4 6 7 10 9 8 13 14 13 13 13
9 9 8 7 6 5 5 5 5 4 4 4 4 3 2 1 1 2 4 5 6 7 8 10 11 13 14 15 14 14 13 12 11 10 10 11 11 11 13 15 15 14 14 12 11 9 5 3 2 2 4 5 6 7 8 8 7 9 8 7 5 7 23 24 23 23 20 20 19 18 17 15 14 12 10 7 2 2 4 4 5 5 10 13 13 13 13 12
9 9 8 7 6 5 5 5 5 5 4 4 4 3 3 2 1 0 2 3 5 6 7 8 9 11 13 14 14 14 13 12 12 11 10 11 11 11 13 15 17 16 15 13 12 9 5 3 1 3 4 4 6 7 7 8 8 9 10 8 9 3 17 25 22 23 22 20 20 18 17 16 15 13 9 6 5 4 6 6 6 6 9 10 10 12 12 11
10 9 9 8 7 6 5 4 4 4 4 4 4 3 3 2 1 1 1 2 3 4 5 6 8 9 11 13 14 14 13 11 12 13 12 12 12 12 13 15 17 17 16 15 13 10 6 3 1 4 4 3 4 6 5 7 9 10 11 10 12 9 13 25 25 24 24 22 20 18 17 16 15 13 10 8 4 4 6 7 8 11 11 9 9 9 10 10
10 10 9 8 8 7 6 5 4 4 4 4 4 4 4 3 2 1 0 1 2 3 4 5 6 8 9 11 13 14 13 12 13 14 14 14 13 14 14 15 16 16 16 16 14 10 7 4 3 4 2 2 3 4 5 8 10 12 12 12 13 9 12 27 29 26 26 24 22 19 18 16 15 13 11 10 7 2 6 8 10 13 13 10 9 8 9 10
10 9 8 8 8 7 7 6 5 4 4 4 3 3 3 3 2 1 1 0 1 2 3 4 5 6 7 9 12 13 15 14 14 15 16 16 15 15 15 15 16 16 17 17 14 11 7 5 6 3 0 1 2 3 5 7 10 12 13 14 11 5 13 28 32 29 28 26 23 20 18 16 13 12 11 9 8 4 5 8 10 13 13 11 9 8 8 9
9 8 8 8 8 7 7 6 6 5 4 4 4 3 3 3 2 2 1 1 1 2 2 3 4 4 6 7 9 13 15 16 16 16 17 17 17 17 17 16 15 16 18 18 16 12 8 8 7 3 1 1 2 3 5 7 9 11 13 13 6 5 14 28 34 30 28 26 24 22 19 16 14 13 12 10 8 6 5 7 7 10 11 10 10 9 8 8
8 8 8 8 8 7 7 6 6 5 5 4 4 3 3 2 2 2 2 2 1 2 2 3 4 4 5 5 8 13 15 16 16 15 16 17 18 18 18 17 16 17 19 18 15 12 10 9 8 4 2 1 2 3 5 6 7 10 11 8 2 6 15 29 34 30 27 25 24 22 20 17 15 14 13 13 10 8 7 6 6 8 9 8 8 9 8 7
8 8 8 8 8 8 7 6 6 6 6 5 5 4 3 3 2 1 1 1 2 3 3 4 4 4 4 4 7 12 14 15 15 14 14 16 16 17 18 18 17 18 19 17 15 13 11 10 9 6 5 4 2 3 4 5 6 8 7 2 4 8 18 29 32 29 26 24 24 24 23 18 16 15 12 11 11 9 7 6 4 5 7 8 8 9 8 7
8 9 9 9 8 8 7 7 7 6 6 6 5 5 4 3 2 2 1 0 1 3 4 5 5 5 5 5 6 8 10 13 16 15 14 14 13 15 17 18 18 18 19 18 17 16 14 12 11 9 7 6 3 3 3 4 4 4 2 3 7 12 22 30 30 27 25 23 23 24 23 20 18 15 12 11 10 9 8 6 4 3 5 7 8 8 8 7
9 9 9 9 8 8 8 8 7 7 7 6 6 5 5 4 3 3 2 1 1 2 4 5 6 7 6 6 4 5 7 9 14 16 16 15 13 13 15 18 18 19 22 22 20 19 17 14 13 11 8 6 3 2 2 2 2 1 2 5 10 15 22 27 26 25 25 23 23 23 21 19 19 16 13 13 11 9 9 8 6 3 4 7 9 8 8 7
10 10 9 9 9 8 8 7 7 7 7 6 6 6 6 5 4 3 3 2 0 1 3 5 6 7 7 6 5 5 7 8 10 14 17 18 16 13 15 18 18 19 23 25 23 21 19 16 14 12 10 8 5 2 2 2 1 3 4 7 11 15 20 25 25 24 24 23 24 24 20 20 20 18 16 13 12 10 9 9 7 4 5 7 9 8 8 9
10 10 10 9 9 8 7 7 7 7 7 7 7 6 7 6 5 4 3 2 1 2 4 5 6 7 6 6 6 6 8 10 12 13 15 17 18 15 15 18 18 18 23 25 24 21 19 17 16 14 12 10 7 4 3 2 3 6 6 9 13 15 19 23 24 23 23 23 27 26 20 21 21 19 17 13 13 12 10 8 6 4 5 8 10 9 8 12
11 11 11 10 8 8 7 7 7 7 7 7 7 6 6 6 6 5 4 3 3 4 5 6 6 6 4 4 4 4 6 10 12 13 13 14 18 17 16 19 19 19 23 25 23 20 19 19 16 15 12 11 9 7 4 2 5 5 5 10 13 15 19 20 22 22 20 21 26 25 19 20 22 19 17 14 14 14 11 8 4 3 5 8 10 9 10 14
11 11 11 10 9 8 8 8 8 7 7 7 6 6 6 6 6 5 5 4 4 4 5 6 7 6 5 4 4 3 4 7 10 12 13 14 17 17 17 20 21 20 23 26 24 20 20 19 17 15 12 11 10 9 7 5 7 6 7 12 13 15 18 20 21 21 18 17 21 24 21 20 21 20 18 16 15 14 12 9 5 3 5 8 11 10 12 14
12 11 10 10 10 10 9 8 8 7 7 7 7 7 8 8 7 6 4 3 3 4 4 5 5 5 6 6 5 4 4 5 7 12 14 13 16 17 18 21 21 21 25 27 24 20 19 18 16 15 13 14 12 11 8 4 4 5 7 13 14 15 18 20 22 20 17 16 18 23 23 20 21 21 19 17 17 15 11 9 6 6 6 8 11 12 13 15
11 11 10 11 11 11 11 11 10 10 10 10 9 10 11 11 10 8 6 4 3 3 2 3 4 5 5 4 4 5 5 6 7 10 13 12 14 16 18 20 20 22 27 26 22 19 17 17 18 19 19 18 13 10 7 0 1 3 4 8 12 15 17 18 20 19 18 18 17 21 23 21 21 21 20 19 18 16 13 10 10 9 9 11 13 15 15 15
10 10 11 12 14 14 15 15 15 14 13 12 11 11 11 12 12 10 9 8 5 3 1 2 4 4 3 1 2 4 4 6 7 8 11 11 12 15 16 19 20 24 28 25 21 19 17 19 23 24 21 15 10 9 8 2 2 2 4 7 10 14 16 18 18 17 17 17 16 19 22 22 21 20 20 20 20 19 17 14 13 11 10 12 15 17 15 15
9 10 11 14 16 17 17 17 16 15 13 12 11 10 10 11 11 11 10 9 7 6 4 2 4 3 3 3 3 3 2 4 6 8 10 11 12 13 14 18 20 24 28 24 21 20 19 22 24 22 17 13 10 10 11 7 2 1 3 7 10 13 16 17 17 15 17 17 15 17 21 23 21 20 21 22 22 21 19 16 14 12 11 11 14 17 15 14
8 10 12 14 16 16 16 16 15 14 13 12 12 11 11 11 11 10 8 7 7 7 7 6 5 4 5 5 4 4 2 3 6 9 11 11 11 10 12 17 19 22 26 23 21 21 21 23 22 18 15 15 12 12 14 13 8 4 4 6 10 13 15 17 17 16 18 18 16 16 19 21 21 20 22 23 23 22 19 17 14 12 12 11 11 13 13 14
8 10 12 13 13 13 14 14 14 13 12 12 11 10 11 11 10 10 8 8 7 7 7 7 7 6 6 5 4 6 4 2 6 8 9 10 10 9 10 14 17 20 24 23 21 22 21 19 18 16 15 17 17 15 15 14 13 10 9 8 10 13 16 17 16 17 18 18 16 15 16 19 21 22 24 25 25 24 21 19 18 16 14 11 9 9 10 12
7 10 11 11 11 11 11 12 12 12 11 10 10 10 10 10 10 10 8 7 6 7 7 6 6 6 5 4 4 4 4 4 3 4 7 8 9 8 8 10 14 18 22 23 23 25 22 15 14 16 16 18 20 19 17 16 15 14 12 11 11 12 15 14 13 17 19 19 18 15 15 20 24 24 26 26 26 27 25 23 22 20 18 15 12 10 9 9
7 8 9 8 8 9 9 10 11 10 9 9 9 9 9 9 8 8 8 6 5 4 4 5 5 5 5 5 4 5 6 5 3 2 4 7 8 7 6 7 12 16 19 21 23 26 24 16 12 14 17 18 20 21 20 16 15 16 15 13 12 11 14 13 11 16 19 18 20 17 12 16 24 27 26 27 29 28 27 27 25 23 21 19 17 16 13 11
6 7 7 6 6 7 8 9 10 9 8 8 8 8 7 7 6 6 7 6 6 6 6 5 5 5 5 4 4 5 5 5 4 2 2 5 6 6 6 7 10 13 15 17 20 22 23 20 16 15 17 19 21 24 22 18 16 16 14 12 10 11 15 15 13 15 17 16 18 21 15 10 17 27 28 28 30 31 31 30 28 27 25 24 20 18 16 13
6 6 5 5 5 6 8 8 7 7 7 7 8 8 7 7 6 6 5 3 6 9 8 6 6 7 7 5 4 4 4 5 5 2 1 4 5 6 6 6 8 9 11 11 13 15 16 17 17 15 15 17 22 27 25 21 18 16 13 11 10 11 15 16 15 15 16 14 13 19 23 12 13 23 27 30 33 32 35 35 33 31 28 27 23 20 18 15
6 6 5 5 5 6 7 6 6 6 6 7 7 7 6 5 5 6 4 2 4 7 8 8 7 7 7 5 4 3 4 4 4 1 2 4 5 5 5 6 7 6 7 8 9 11 11 12 13 12 12 16 23 28 26 22 21 19 13 11 9 9 15 17 17 18 16 11 9 16 23 14 14 21 22 27 37 37 37 37 35 34 31 28 26 23 20 18
7 7 6 5 5 5 6 5 5 5 5 5 6 6 6 4 3 5 4 2 5 6 6 6 5 3 3 3 2 2 2 2 3 2 2 3 5 5 5 5 3 3 4 8 10 11 10 10 10 11 12 16 21 25 24 19 22 25 18 11 9 11 17 17 17 17 11 7 8 15 22 13 10 18 19 25 36 36 36 39 38 36 34 31 28 25 23 21
8 8 7 6 5 4 4 4 4 4 4 4 3 6 7 5 4 4 2 3 7 8 6 5 4 2 1 2 0 2 1 1 0 1 1 2 4 5 5 4 4 5 5 8 10 11 11 11 11 12 11 11 14 20 21 16 20 26 21 14 11 12 15 13 12 11 5 5 8 12 22 17 6 12 20 22 19 15 21 34 40 38 36 34 31 28 26 24
9 9 8 7 5 3 3 3 4 3 3 3 1 4 6 8 8 5 2 3 8 10 8 6 5 4 4 4 4 3 2 2 3 3 2 2 2 3 5 5 4 4 5 7 8 9 12 13 13 12 10 9 11 17 19 17 19 21 19 15 11 11 9 6 6 8 3 3 4 5 15 22 12 11 15 17 14 11 13 22 30 34 36 35 33 30 28 26
10 10 10 8 5 3 2 3 3 3 3 3 2 3 2 5 8 7 5 5 7 11 10 7 7 6 4 5 5 5 5 4 3 3 3 2 2 2 2 3 3 4 4 5 6 7 10 13 11 11 11 12 13 15 18 17 16 17 18 16 12 8 4 2 2 4 5 5 4 4 6 18 21 17 12 14 18 18 18 16 17 24 32 36 34 32 30 29
10 11 11 10 7 5 3 3 4 3 2 3 4 3 3 4 5 6 8 7 8 12 12 10 9 5 3 3 3 4 4 2 2 2 3 2 2 2 1 4 5 6 4 5 7 7 4 9 10 11 12 13 14 16 20 21 18 19 20 19 14 7 3 2 1 1 4 7 9 7 5 11 20 18 13 13 14 17 20 17 15 19 27 35 36 34 32 31
9 11 12 11 9 6 4 3 4 3 2 4 3 2 4 6 5 6 9 9 11 12 11 11 9 4 2 2 1 2 3 1 1 3 3 3 3 5 4 2 1 3 2 4 5 5 2 5 7 9 8 10 13 13 17 24 23 22 21 19 16 11 5 3 5 4 2 2 3 7 7 7 10 6 6 7 6 9 15 16 16 17 23 33 39 37 35 34
9 11 13 12 11 9 5 2 3 2 2 3 3 4 6 6 6 7 8 9 11 12 10 8 7 5 2 0 1 1 2 1 2 3 2 3 4 6 10 11 8 4 3 3 2 4 4 2 3 7 8 7 10 10 12 21 25 22 22 21 18 14 8 5 6 7 7 6 6 10 10 9 8 7 8 9 7 7 9 12 18 18 19 30 40 42 38 36
8 11 13 13 13 11 8 3 2 3 3 4 4 7 8 7 6 6 7 9 10 11 10 5 4 7 4 1 1 1 2 0 5 6 7 8 8 8 9 10 10 8 8 5 2 5 4 3 3 5 8 7 8 10 13 20 22 23 25 23 18 15 11 6 5 6 6 4 4 10 11 11 8 8 10 9 9 8 7 10 16 17 17 22 34 42 42 39
8 11 13 15 14 14 10 5 4 4 4 4 5 6 6 6 8 8 8 8 7 9 9 6 6 8 5 1 1 2 2 1 7 9 9 8 6 8 9 8 8 8 9 6 4 5 6 5 3 3 5 8 7 10 18 19 16 20 23 22 16 12 10 6 4 4 3 0 3 9 12 12 7 7 7 6 6 5 5 9 13 17 18 18 24 34 42 41
8 11 14 15 16 15 12 7 4 4 3 4 5 4 3 5 7 8 8 8 6 5 6 7 9 8 6 3 0 3 3 3 7 9 8 6 5 7 8 8 8 8 8 8 7 6 8 6 2 4 1 7 9 13 20 16 11 13 15 18 15 8 8 9 4 2 2 0 2 5 9 9 8 9 9 6 4 3 4 7 11 14 17 18 19 26 36 41
9 12 14 16 18 17 13 8 5 3 4 5 4 3 2 4 5 6 7 7 5 4 4 6 7 7 6 5 3 4 3 3 6 8 8 7 5 4 3 4 8 9 9 8 8 9 8 6 4 6 1 7 11 15 19 14 12 10 10 17 17 7 7 12 10 6 4 2 2 2 3 3 4 7 7 5 2 1 2 4 8 11 13 16 18 23 31 39
10 13 15 17 18 17 13 9 6 4 4 5 4 4 2 1 1 2 4 5 5 5 3 4 5 5 5 4 3 4 3 3 7 7 7 8 5 2 0 2 4 7 9 8 7 8 8 7 7 7 3 8 8 10 15 15 12 8 7 15 17 9 8 11 11 10 6 2 3 2 2 1 3 6 5 4 1 2 1 3 5 7 9 12 15 20 27 35
12 14 15 17 18 16 13 10 7 5 4 4 4 5 4 3 3 0 3 3 3 3 3 3 4 4 4 3 4 5 6 6 6 6 6 7 5 2 2 3 5 7 8 8 7 6 8 9 9 9 10 12 11 7 9 15 16 12 9 12 14 12 11 9 7 11 10 4 3 3 2 1 3 6 5 3 2 5 5 5 7 6 7 9 12 16 23 31
13 13 14 16 16 15 13 10 9 8 5 3 5 7 5 6 4 1 3 2 2 3 2 3 2 3 3 4 5 6 8 8 7 6 6 6 4 2 1 2 5 7 9 9 8 8 8 9 7 6 11 15 16 12 9 12 17 17 15 14 14 14 13 10 6 8 10 7 4 3 1 0 5 8 4 2 3 8 8 8 7 7 8 9 11 13 19 27
13 13 14 15 15 14 13 11 11 11 7 4 6 7 7 7 5 3 4 4 4 4 4 4 2 0 1 3 4 5 7 9 8 8 7 6 4 3 2 2 5 6 8 8 7 7 7 8 8 3 7 11 13 13 12 11 13 14 11 11 15 14 15 14 10 8 8 6 5 3 1 1 6 6 3 2 5 8 9 8 7 6 5 6 9 13 17 24
13 13 13 14 14 13 12 12 12 12 9 6 6 6 7 8 7 4 5 4 4 4 4 4 1 2 3 1 2 5 6 6 8 9 7 6 4 3 2 2 4 5 7 7 6 5 4 5 7 5 3 4 5 7 8 8 9 9 6 5 9 11 13 15 13 9 7 5 4 3 2 2 3 3 2 2 5 8 8 8 6 4 2 1 6 13 17 22
15 15 14 14 15 14 13 13 13 13 11 9 7 6 7 9 8 6 5 4 4 3 4 4 2 2 4 3 0 3 5 5 6 8 7 6 5 3 2 2 4 4 3 3 3 3 0 4 5 5 4 1 2 1 1 1 4 4 3 1 3 7 10 13 12 9 8 7 6 4 6 5 3 2 3 3 5 6 6 6 5 3 2 1 1 8 14 19
17 16 15 15 16 17 15 13 13 14 13 11 8 6 8 10 8 7 7 5 5 4 5 6 5 3 4 3 1 2 5 7 6 6 6 6 5 4 4 3 3 4 4 3 4 1 5 10 10 8 7 4 2 4 4 2 4 6 5 6 3 3 7 10 10 9 10 9 6 6 8 8 4 2 3 3 5 5 4 4 3 2 2 2 1 2 7 14
18 18 17 15 16 17 16 14 12 12 13 11 8 7 10 11 9 9 9 7 6 6 6 7 5 5 6 5 3 2 3 5 5 5 6 5 4 4 4 2 3 5 5 3 4 3 5 9 12 10 8 9 7 6 5 4 7 9 8 7 7 4 1 7 10 9 10 9 7 8 10 9 7 5 4 4 4 5 4 3 1 1 3 5 3 2 1 6
17 19 18 17 16 14 14 15 15 12 12 11 9 9 11 10 10 11 11 9 9 8 7 7 7 6 6 5 5 3 2 3 4 5 5 4 4 3 3 1 2 4 5 4 4 4 3 8 9 8 4 7 9 9 8 9 10 11 9 8 10 11 7 2 7 7 9 10 10 12 12 9 9 8 6 5 4 3 3 3 3 2 2 3 0 2 1 1
15 19 20 19 19 16 13 14 16 13 11 10 9 11 11 8 8 12 12 11 11 9 7 6 7 7 6 5 6 5 3 3 4 5 5 4 4 3 3 2 2 3 4 3 4 6 5 8 10 12 11 5 5 8 8 9 10 11 13 13 13 13 11 5 3 6 8 9 10 11 11 10 10 10 8 6 5 4 4 4 4 3 1 2 3 4 3 2
13 18 21 21 21 20 16 14 15 14 11 9 9 11 11 8 9 13 14 12 12 10 8 7 6 6 6 6 7 7 5 5 5 6 7 6 4 4 4 3 3 3 2 2 3 3 4 9 11 13 17 15 7 4 2 5 8 10 13 14 13 13 11 9 8 4 4 7 9 9 11 11 11 10 9 8 7 6 5 5 5 4 2 1 2 4 4 4
12 15 19 22 23 23 21 17 16 15 12 10 10 11 11 10 11 13 14 13 12 10 9 9 8 8 7 8 9 8 6 5 6 7 8 7 5 4 4 3 1 2 2 2 2 2 3 9 12 12 17 19 15 12 11 10 9 8 8 9 10 10 9 8 10 9 7 10 10 10 12 13 12 11 9 8 7 6 5 4 4 3 3 3 3 3 3 4
12 13 16 20 22 24 24 21 19 19 15 12 11 11 12 13 13 13 14 14 13 12 11 10 10 9 10 11 11 10 7 5 6 6 7 6 4 3 2 2 1 1 2 2 4 4 5 8 11 11 14 18 18 17 17 14 12 8 5 5 6 7 7 6 7 11 11 10 10 11 13 12 11 11 10 8 7 6 5 4 4 4 3 3 3 2 2 3
Wind_Direction
18 11 2 355 350 347 342 338 338 338 339 335 320 293 262 245 242 239 233 230 229 231 232 233 235 234 233 232 231 228 224 222 216 209 208 209 213 215 213 216 217 212 209 213 219 224 240 266 77 95 115 99 76 68 66 57 54 56 50 73 179 182 175 172 173 178 182 179 177 181 183 177 175 172 173 186 173 155 182 167 158 166 162 166 178 169 149 140
34 26 18 11 4 356 350 346 344 340 341 344 344 332 292 251 238 238 236 231 228 227 228 229 231 232 232 232 230 228 225 224 218 207 205 207 211 212 209 208 212 209 202 207 215 211 218 208 91 94 105 76 50 54 58 55 51 48 46 50 166 187 183 177 178 183 186 184 179 182 185 180 180 172 169 184 178 161 182 171 160 169 173 167 170 157 144 139
36 30 25 20 13 6 358 352 349 347 346 348 351 351 338 281 236 231 235 234 230 226 226 226 227 229 229 230 229 227 224 221 219 210 203 206 209 210 207 206 205 202 199 201 207 208 209 199 132 101 68 38 40 52 44 42 43 31 33 42 82 190 189 185 184 186 189 188 183 184 183 178 179 176 177 184 177 168 183 176 161 170 179 166 162 152 146 145
33 29 26 23 19 13 4 355 353 354 354 357 359 356 356 336 258 224 227 231 233 228 226 225 225 226 226 227 228 225 222 218 216 210 204 205 206 205 205 206 205 204 204 203 207 211 210 205 184 59 42 47 54 49 30 17 16 14 14 17 2 197 190 193 190 185 190 192 188 188 183 175 179 185 189 183 168 161 152 145 134 161 179 164 156 154 150 147
29 26 24 21 22 20 11 2 356 358 1 8 13 10 10 0 348 240 224 226 229 229 227 225 224 223 223 224 225 223 219 216 214 207 202 204 204 200 202 206 207 207 206 203 208 212 204 210 249 42 58 74 60 39 24 2 350 356 358 349 339 290 193 195 192 186 190 195 193 192 187 180 184 190 182 137 82 79 124 127 111 141 171 160 156 157 148 139
25 23 22 20 22 25 24 17 6 3 5 11 22 28 28 21 10 349 232 217 219 226 226 225 225 222 222 222 221 220 213 210 210 203 198 199 201 199 199 205 207 207 205 202 206 207 202 206 156 81 87 81 51 31 15 351 340 340 344 340 326 310 203 194 192 188 189 194 197 196 194 188 188 188 167 142 115 79 108 124 124 139 157 161 164 158 140 130
24 20 20 22 25 30 34 33 25 18 16 17 26 36 44 48 37 20 327 218 205 212 221 223 224 221 221 219 218 214 206 203 205 200 197 196 198 199 198 203 205 205 204 203 203 202 203 188 139 115 103 60 35 17 359 341 338 337 335 333 319 297 205 192 189 188 188 193 198 200 202 197 191 188 171 168 189 156 89 116 137 144 151 160 169 161 141 133
21 20 21 25 28 33 37 39 38 34 32 33 33 38 47 57 64 68 67 200 199 202 212 218 220 218 219 219 214 208 203 202 202 198 195 195 197 197 198 200 201 201 202 203 200 198 199 168 144 141 220 30 17 4 352 333 336 339 328 326 317 261 193 189 186 187 188 190 197 200 205 204 196 187 173 165 178 176 96 106 137 144 146 157 168 166 154 146
19 20 23 26 28 30 33 35 38 38 38 40 41 43 43 50 70 87 105 132 180 191 196 209 217 217 216 216 211 205 203 203 203 199 196 195 196 196 196 197 196 196 199 201 196 187 178 165 160 171 270 9 2 346 342 328 328 331 324 322 309 195 186 185 184 186 185 187 196 199 204 206 201 192 178 167 169 177 139 111 127 137 143 159 168 169 164 155
19 21 24 24 22 23 24 26 29 32 33 34 39 40 41 43 53 70 101 132 154 169 176 192 202 214 211 210 208 203 205 206 204 200 197 197 197 195 194 193 192 191 195 197 186 170 163 167 172 185 203 228 325 332 336 330 322 320 323 322 255 183 185 182 181 183 181 186 195 200 204 205 205 201 183 169 172 181 161 134 125 128 143 164 171 172 170 159
19 19 19 16 13 12 11 13 16 21 24 27 31 30 33 35 37 47 73 131 161 171 176 178 182 199 200 201 208 205 207 206 200 195 192 197 199 197 193 191 189 188 190 187 172 164 168 173 179 191 198 210 268 325 333 328 320 318 326 328 173 174 175 175 178 179 179 185 193 199 200 201 207 203 186 174 178 181 169 152 137 126 147 172 181 177 173 165
15 14 12 8 4 1 358 359 4 9 13 18 22 24 26 27 28 25 19 134 190 185 183 181 176 181 187 199 209 206 208 207 202 196 190 193 197 198 195 190 188 186 181 173 166 167 173 175 181 190 192 200 237 307 314 316 326 333 5 119 155 165 167 171 176 177 179 186 195 199 196 196 205 203 191 190 189 186 185 182 179 158 162 183 193 184 176 172
9 7 5 0 355 350 348 350 355 0 6 11 18 22 25 25 24 20 9 349 256 202 189 186 178 175 182 193 194 189 195 202 206 205 201 196 195 199 196 191 190 185 173 165 165 172 176 177 181 189 195 195 203 272 285 308 342 41 109 138 155 162 164 170 175 177 180 188 197 200 195 196 203 204 201 200 201 200 200 200 201 208 203 201 203 193 177 168
4 3 1 357 352 349 347 348 351 357 1 6 17 26 31 30 27 29 25 11 334 186 185 185 179 178 180 177 168 166 172 184 202 209 208 204 200 202 199 193 191 184 174 168 167 175 178 176 177 185 194 194 181 206 267 311 95 117 130 147 153 160 164 171 175 177 181 190 200 201 200 201 202 206 208 207 210 209 203 201 203 220 227 212 208 204 176 161
7 9 8 4 0 357 355 353 354 358 2 6 16 29 38 39 34 37 43 46 99 141 159 169 170 173 172 162 162 161 159 176 195 202 206 206 203 203 201 194 188 184 179 174 172 177 179 177 177 181 189 195 182 186 249 275 148 132 138 152 156 162 165 171 174 176 183 191 197 200 204 208 207 209 210 208 206 200 195 195 199 228 238 219 213 210 174 162
17 17 14 11 9 7 4 1 358 2 6 10 19 34 44 47 47 48 57 79 115 136 145 146 148 150 144 142 158 157 155 177 194 196 193 198 201 202 202 194 185 183 182 178 178 181 183 181 180 182 188 195 178 173 216 211 157 157 165 160 164 171 166 169 175 177 185 189 192 198 206 211 212 210 206 203 196 186 185 189 200 250 248 227 220 214 182 170
21 20 18 16 16 18 16 10 6 10 17 22 33 49 55 58 67 70 68 87 117 130 132 128 131 126 113 127 138 130 150 173 191 194 186 187 194 198 200 193 184 182 181 180 182 186 187 184 185 189 189 190 181 180 199 196 176 179 180 169 165 172 171 170 176 179 184 189 196 203 208 214 215 211 206 202 191 183 183 186 204 260 260 233 225 219 189 174
21 22 23 24 28 30 28 25 25 32 41 44 53 70 77 77 80 80 68 88 119 121 116 114 121 122 120 128 126 124 146 158 177 187 186 187 191 194 196 191 185 181 180 181 184 187 189 188 191 195 191 190 189 184 187 205 201 175 167 174 169 168 172 171 175 178 179 183 197 204 208 217 218 213 209 203 193 189 184 183 209 244 252 234 225 218 190 169
24 29 33 36 39 40 41 45 50 55 57 60 75 87 85 79 75 69 60 68 110 130 129 115 116 127 136 134 124 129 137 140 153 170 181 190 192 193 194 189 186 183 181 182 185 187 191 191 195 199 198 193 184 178 183 301 249 192 167 176 176 170 170 170 173 176 177 181 194 203 210 218 219 216 210 202 197 195 192 195 212 226 232 225 218 214 190 165
30 40 46 51 55 57 58 59 60 59 55 58 74 84 79 74 70 64 59 58 69 90 122 152 126 108 109 128 142 138 136 145 145 153 175 187 189 193 192 189 189 184 182 183 185 189 193 199 204 206 201 188 170 177 201 210 101 184 199 186 186 179 174 175 176 178 184 189 195 204 213 219 222 221 211 203 200 200 199 200 206 214 222 217 212 210 189 162
42 56 63 68 70 69 69 66 63 60 56 59 67 74 71 66 61 54 54 54 63 72 65 120 142 108 79 81 111 131 160 176 158 154 171 181 186 192 192 192 190 186 184 183 185 191 198 206 210 211 202 179 172 191 208 218 173 112 213 195 196 191 184 185 185 184 190 197 200 202 211 220 223 220 213 209 206 205 203 199 200 204 207 204 204 203 187 167
61 78 79 79 76 73 70 66 64 60 60 62 65 70 64 56 51 45 49 55 67 78 73 85 109 105 83 71 73 78 90 183 189 181 178 178 182 189 193 193 191 189 189 188 190 195 204 212 211 211 202 182 189 211 216 227 238 258 251 218 210 202 192 191 193 191 194 201 206 207 212 219 221 217 213 213 212 210 208 203 201 203 200 192 188 188 183 178
82 95 90 86 78 73 69 64 63 60 56 55 56 59 52 44 40 38 49 62 72 85 84 82 92 95 81 65 58 52 53 158 198 198 188 177 179 189 192 191 194 195 194 194 197 201 208 215 211 210 204 190 196 207 212 225 238 248 253 243 231 216 200 196 199 198 199 203 206 209 214 218 220 217 215 217 217 213 211 208 206 209 207 193 180 180 183 183
99 107 98 91 81 74 70 65 62 58 51 47 45 45 41 36 34 33 44 60 74 86 83 75 82 93 89 78 73 68 73 107 145 191 197 186 184 192 188 190 200 198 197 200 204 209 211 211 207 208 208 206 208 209 215 229 238 245 252 252 248 230 209 203 207 205 202 206 209 207 214 222 223 222 220 220 219 216 213 211 209 212 212 201 194 198 197 192
112 117 107 96 85 78 73 65 59 53 46 39 36 33 27 25 26 30 40 51 68 73 56 60 79 98 100 90 90 102 95 89 103 143 180 186 191 196 195 203 204 197 199 204 209 217 220 213 204 206 211 219 219 216 223 233 243 251 252 252 259 249 223 209 205 204 200 208 216 208 212 230 227 226 228 224 221 221 219 217 215 214 215 209 202 200 200 202
126 130 120 108 96 86 75 63 56 49 37 26 22 17 17 22 18 24 39 49 59 48 33 50 81 96 103 102 105 113 98 94 120 111 134 181 194 196 199 205 198 194 198 207 216 226 230 225 218 216 217 221 221 219 224 230 238 249 250 248 254 246 229 215 202 199 198 208 217 211 212 239 236 230 231 227 224 225 224 224 221 216 218 216 207 201 200 202
146 145 140 128 111 96 80 65 54 44 29 16 12 11 21 32 29 29 34 39 43 38 38 53 77 90 99 113 112 104 96 106 119 107 200 210 207 198 195 189 180 183 192 207 224 229 233 225 216 222 224 224 225 223 224 226 225 235 250 262 261 243 230 221 207 203 206 209 212 214 217 235 259 241 232 227 226 227 227 229 227 220 219 219 214 207 203 204
166 163 163 150 130 108 86 64 46 38 27 15 14 17 24 35 39 37 36 41 31 30 40 58 76 89 94 104 99 88 94 99 101 110 191 201 205 202 195 174 156 160 192 226 235 224 226 215 206 223 233 228 224 222 224 223 219 228 249 272 274 244 227 217 204 206 213 213 210 214 214 225 260 248 237 228 226 228 230 231 230 225 221 220 218 214 210 208
180 178 177 167 150 118 86 61 39 33 29 22 28 36 35 39 40 35 45 58 31 26 31 40 56 79 100 118 93 60 86 71 64 98 164 198 195 192 191 185 183 199 225 250 244 229 230 223 219 235 238 230 222 223 227 220 217 229 242 257 251 221 213 202 195 208 215 218 229 219 207 210 261 250 234 223 224 232 236 234 231 228 225 223 221 217 215 214
189 188 184 177 161 120 82 60 41 37 38 27 39 55 54 56 42 28 43 27 13 17 16 8 7 355 285 219 179 17 10 348 350 170 180 201 195 203 211 223 252 247 247 261 256 248 241 233 239 244 238 229 217 219 225 217 219 230 238 242 222 196 198 191 191 212 228 245 253 236 212 207 263 255 224 218 230 249 246 236 232 228 227 226 224 220 217 216
195 193 190 187 174 135 99 72 50 47 49 29 49 80 71 62 52 48 42 5 5 10 15 17 358 335 310 279 269 295 295 288 274 241 198 155 183 221 229 229 254 267 264 259 263 267 253 243 247 245 235 228 215 211 215 214 219 230 240 234 195 162 177 183 190 208 231 269 276 276 220 210 231 257 231 232 256 278 266 246 236 229 227 226 225 223 220 218
201 198 196 198 193 170 138 91 71 75 71 61 89 116 115 65 51 48 30 5 5 8 13 15 351 330 318 297 283 294 285 275 289 256 202 178 172 182 229 235 259 285 272 245 271 290 261 248 248 239 236 241 232 208 195 197 213 230 232 209 167 122 139 189 185 205 232 242 252 305 210 208 233 260 267 262 261 258 262 266 252 236 230 228 227 225 223 221
209 202 199 202 205 189 160 118 92 93 98 87 86 108 125 91 55 37 26 12 8 11 14 13 358 333 325 331 320 316 293 264 284 245 180 154 112 88 273 257 260 274 279 268 297 327 271 235 237 235 238 241 233 209 192 193 208 225 220 197 170 131 106 206 232 270 261 249 249 255 207 218 247 268 285 283 272 259 255 258 256 246 237 232 229 227 226 224
216 206 201 205 211 198 176 144 96 96 123 93 78 150 134 93 58 31 26 15 10 15 19 18 9 345 328 3 31 320 312 334 238 214 174 151 114 77 73 77 235 252 285 285 302 344 327 224 226 228 229 230 228 221 211 207 211 221 221 209 198 185 160 186 206 191 146 111 175 191 192 226 241 252 287 300 301 267 249 238 234 239 238 233 230 228 227 226
219 209 202 207 213 204 194 172 102 103 151 111 85 136 127 84 45 31 24 13 9 16 23 23 20 20 3 322 145 265 301 11 151 178 140 139 140 95 79 66 62 68 20 336 312 342 317 273 246 229 219 218 219 219 217 208 203 206 209 209 212 220 218 183 179 183 150 109 135 176 205 241 233 240 274 288 293 279 259 231 217 218 228 229 228 227 228 228
217 207 203 207 213 208 203 195 134 128 156 155 119 102 94 69 45 38 22 11 13 18 21 23 34 37 37 206 200 262 295 350 141 139 111 109 108 93 81 64 54 48 23 355 347 2 332 313 334 256 229 220 213 213 218 211 199 193 199 209 220 229 226 183 139 157 152 134 196 207 232 255 250 258 273 285 284 270 258 239 218 209 216 225 226 227 227 228
213 205 203 206 211 210 207 204 164 145 152 161 134 97 84 67 54 45 25 14 20 24 23 33 45 39 39 43 234 241 279 153 149 144 123 109 90 80 80 64 44 27 19 14 8 3 341 319 350 340 240 217 208 205 209 212 206 196 200 212 219 216 213 189 118 117 134 112 239 227 246 262 264 260 269 300 306 280 252 237 222 212 212 220 225 225 226 227
211 204 202 204 211 211 210 211 182 161 180 177 148 113 95 78 58 46 32 19 22 36 37 47 49 40 44 47 161 201 221 186 163 162 148 121 77 72 76 57 33 6 4 17 17 5 352 342 356 12 342 191 184 190 196 199 204 206 207 208 207 206 205 190 157 132 147 261 266 249 254 260 269 275 286 304 308 300 267 229 222 219 215 218 222 223 226 227
210 204 202 206 211 211 213 217 203 199 222 206 183 170 128 87 64 45 34 18 16 40 57 62 53 42 46 51 83 153 189 191 168 171 163 138 98 70 68 41 23 5 356 1 4 3 360 358 2 1 14 165 162 178 189 187 180 187 200 200 200 216 209 194 196 195 171 176 234 285 274 242 272 300 321 333 323 332 298 228 223 229 224 222 222 222 223 224
208 205 205 210 212 210 217 220 213 227 234 221 214 207 200 164 126 50 22 12 11 22 38 55 54 48 51 60 86 110 113 144 160 166 167 164 164 163 187 340 346 351 354 346 340 355 2 0 13 27 105 151 143 166 188 190 182 177 188 196 199 210 198 189 202 206 200 187 168 199 266 248 306 309 329 347 62 135 213 198 196 220 233 235 232 228 225 222
206 206 209 213 212 209 214 217 215 221 210 208 223 214 223 232 192 91 349 1 356 352 15 30 42 47 48 77 105 115 112 118 142 147 151 164 168 184 242 289 301 308 330 331 323 344 0 360 17 53 85 107 113 133 178 193 207 228 240 215 205 203 189 178 197 208 213 227 171 178 215 42 315 304 330 352 146 147 170 181 167 176 205 226 234 234 229 223
203 207 213 214 211 207 208 212 215 217 209 214 221 210 221 232 209 280 319 303 288 277 299 346 14 47 50 79 101 120 121 117 125 125 122 140 136 105 198 297 310 300 305 316 324 334 341 344 358 59 86 96 109 121 137 170 201 224 239 228 214 211 204 201 213 204 206 224 219 194 154 32 287 291 317 312 181 156 162 179 178 175 186 205 220 230 229 222
201 210 219 218 211 205 207 217 223 224 232 245 222 215 235 237 221 259 288 266 257 250 248 274 297 141 109 75 96 141 134 116 123 129 123 125 119 83 61 352 331 313 299 299 311 324 332 345 354 38 124 116 110 116 125 144 176 196 209 214 215 219 219 222 229 214 202 208 202 192 146 227 271 282 289 242 179 159 159 167 176 179 186 208 219 225 227 221
203 208 220 223 217 212 217 231 232 230 244 257 237 238 246 229 215 245 277 258 238 230 224 234 273 240 231 243 99 158 154 124 121 132 136 130 113 68 40 14 351 328 304 294 293 300 324 4 14 30 128 161 123 112 128 142 157 166 165 189 208 213 215 221 225 217 208 199 191 190 132 161 250 259 219 198 167 158 157 159 166 167 148 203 220 219 220 218
208 205 215 224 224 224 233 243 243 244 259 265 256 255 235 209 205 230 249 232 219 234 231 222 231 234 220 222 178 158 170 166 141 133 136 129 107 70 35 3 358 3 345 337 336 307 106 82 68 64 74 143 234 308 348 93 106 103 65 9 214 204 207 215 219 216 214 212 207 177 135 151 224 216 174 181 166 161 158 160 172 173 147 75 233 221 218 214
215 212 217 224 227 233 241 247 251 260 269 267 262 249 214 199 205 221 224 224 227 249 258 242 229 212 195 193 197 153 160 172 166 152 148 135 114 84 54 19 14 40 55 54 37 70 129 100 84 81 68 43 330 330 341 12 80 69 35 8 355 214 208 211 215 221 221 210 189 168 165 173 184 162 169 186 178 176 171 168 182 200 219 233 166 193 219 215
221 220 222 223 225 233 240 244 250 264 271 269 263 233 204 206 218 216 216 232 239 241 253 247 224 205 194 185 179 149 150 171 176 172 168 150 125 104 86 81 87 67 52 58 67 90 145 123 105 93 58 28 24 33 47 89 86 69 51 28 20 12 256 215 217 224 223 207 174 184 201 187 159 157 175 176 177 186 175 159 158 216 264 260 224 154 243 230
228 226 225 222 221 225 231 237 243 254 265 263 248 213 202 213 225 220 222 234 233 233 245 236 213 206 204 193 188 176 161 186 184 186 191 171 151 144 134 152 140 86 58 56 75 78 144 164 157 149 107 48 57 69 72 80 75 58 46 34 25 25 29 215 210 201 205 210 202 204 207 181 155 164 168 155 159 167 152 132 121 132 270 288 315 113 119 270
238 232 229 227 225 224 224 231 235 239 247 248 229 209 205 208 218 223 227 225 219 226 238 224 210 220 231 232 229 225 231 239 219 212 221 208 192 196 175 153 138 107 76 64 83 88 123 172 189 194 194 175 85 79 64 50 45 40 37 33 25 23 29 51 144 172 191 203 201 198 190 164 154 160 152 136 129 119 109 107 107 114 259 327 43 87 118 136
250 241 236 233 232 230 229 229 228 230 238 242 230 216 209 200 200 211 215 212 212 218 218 219 235 245 247 259 264 257 254 264 249 218 217 223 220 216 198 164 132 125 118 97 102 102 138 167 180 195 203 205 202 194 237 342 359 15 27 30 30 24 22 45 75 105 164 160 158 170 168 156 152 154 143 129 123 117 108 100 98 103 109 56 62 90 114 141
261 251 243 239 237 235 234 231 226 230 241 242 233 220 209 202 195 200 207 210 216 222 222 232 249 251 255 267 273 272 266 263 246 208 199 207 206 202 205 199 170 154 165 146 131 124 140 157 168 189 202 202 204 216 231 257 295 330 359 16 33 36 27 48 77 90 115 129 137 157 164 158 154 152 144 133 124 117 109 99 96 102 104 90 85 102 131 168
266 260 251 246 242 239 238 237 232 235 241 239 231 219 208 203 196 198 209 213 217 227 233 238 240 243 256 261 257 258 259 250 236 205 184 187 191 194 212 231 245 195 174 157 148 149 148 154 162 181 200 203 208 221 233 250 273 291 327 3 30 49 41 46 94 113 120 129 144 160 166 165 162 156 146 139 130 117 108 102 96 100 101 85 76 99 153 187
Height
3146 3145 3145 3144 3144 3144 3143 3143 3142 3142 3142 3142 3142 3142 3143 3143 3143 3143 3143 3144 3144 3145 3145 3146 3147 3148 3149 3150 3151 3152 3153 3153 3154 3155 3156 3157 3157 3158 3159 3160 3160 3161 3162 3163 3163 3164 3164 3165 3166 3166 3166 3166 3166 3166 3166 3165 3165 3165 3165 3165 3166 3167 3168 3169 3170 3171 3172 3173 3174 3175 3177 3178 3179 3179 3180 3181 3182 3182 3183 3183 3184 3186 3187 3188 3189 3190 3190 3191
3146 3145 3145 3144 3144 3143 3143 3143 3142 3142 3142 3141 3141 3142 3142 3142 3142 3142 3142 3143 3143 3143 3144 3145 3145 3146 3147 3148 3149 3151 3152 3153 3154 3155 3155 3156 3156 3157 3158 3159 3160 3161 3162 3162 3163 3164 3164 3165 3166 3166 3166 3166 3167 3166 3166 3166 3165 3165 3165 3165 3166 3167 3169 3170 3170 3171 3172 3174 3175 3176 3177 3179 3180 3181 3181 3182 3183 3183 3184 3184 3185 3187 3188 3188 3189 3191 3191 3192
3146 3145 3145 3144 3144 3143 3143 3142 3142 3142 3141 3141 3141 3141 3141 3141 3141 3141 3142 3142 3142 3142 3143 3143 3144 3145 3146 3147 3148 3149 3151 3152 3153 3154 3155 3155 3156 3157 3157 3158 3159 3160 3161 3162 3163 3163 3164 3165 3166 3166 3166 3167 3167 3167 3166 3166 3165 3165 3166 3166 3167 3168 3169 3170 3170 3171 3172 3174 3175 3177 3178 3179 3181 3182 3182 3183 3184 3184 3185 3186 3187 3188 3188 3189 3190 3191 3192 3193
3146 3145 3145 3144 3144 3143 3143 3142 3142 3142 3141 3141 3141 3141 3141 3141 3141 3141 3141 3141 3141 3142 3142 3142 3143 3144 3144 3145 3146 3148 3149 3151 3152 3153 3154 3155 3155 3156 3156 3157 3158 3159 3160 3161 3162 3163 3164 3165 3165 3166 3166 3167 3167 3167 3166 3165 3165 3165 3165 3166 3167 3168 3169 3170 3171 3171 3172 3174 3175 3177 3178 3179 3180 3182 3183 3184 3185 3185 3186 3187 3188 3189 3190 3190 3191 3192 3193 3193
3146 3146 3145 3144 3144 3143 3143 3142 3142 3141 3141 3141 3141 3140 3140 3140 3140 3140 3141 3141 3141 3141 3141 3141 3142 3142 3143 3144 3145 3146 3148 3150 3151 3152 3153 3154 3155 3155 3156 3156 3157 3158 3159 3161 3162 3163 3164 3165 3165 3166 3166 3167 3167 3166 3166 3165 3164 3165 3165 3166 3167 3167 3168 3170 3171 3172 3172 3174 3175 3177 3178 3179 3180 3182 3183 3185 3186 3186 3187 3188 3188 3190 3191 3192 3193 3193 3194 3194
3146 3146 3145 3144 3144 3143 3143 3142 3142 3141 3141 3141 3141 3140 3140 3140 3140 3140 3140 3140 3140 3140 3141 3141 3141 3142 3142 3143 3144 3145 3147 3148 3149 3151 3152 3153 3154 3155 3155 3155 3156 3157 3159 3160 3161 3163 3164 3165 3166 3166 3166 3166 3166 3166 3165 3165 3164 3164 3164 3165 3165 3166 3167 3168 3170 3171 3172 3174 3175 3176 3178 3179 3181 3182 3184 3185 3186 3187 3187 3188 3189 3190 3192 3193 3194 3194 3194 3195
3146 3146 3145 3144 3144 3143 3143 3142 3142 3141 3141 3141 3140 3140 3140 3140 3140 3140 3140 3140 3140 3140 3140 3140 3140 3141 3141 3142 3143 3144 3146 3147 3148 3149 3150 3152 3153 3154 3155 3155 3156 3157 3158 3159 3161 3163 3164 3165 3166 3166 3166 3166 3166 3165 3165 3164 3163 3163 3163 3163 3163 3163 3164 3166 3168 3170 3172 3173 3175 3176 3178 3179 3181 3182 3184 3185 3186 3187 3188 3189 3189 3190 3192 3193 3194 3195 3195 3195
3147 3146 3145 3144 3144 3143 3143 3142 3142 3142 3141 3141 3140 3140 3140 3139 3139 3139 3139 3140 3140 3140 3140 3140 3140 3140 3141 3141 3142 3143 3144 3145 3146 3147 3149 3150 3152 3153 3154 3155 3156 3157 3158 3159 3161 3163 3165 3165 3166 3166 3166 3166 3166 3165 3165 3164 3163 3163 3163 3162 3162 3162 3162 3163 3166 3168 3171 3173 3175 3177 3178 3180 3181 3183 3184 3185 3186 3187 3189 3190 3190 3191 3192 3194 3195 3195 3196 3196
3147 3146 3146 3145 3144 3144 3143 3143 3142 3142 3141 3141 3140 3140 3140 3139 3139 3139 3139 3139 3139 3139 3140 3140 3140 3140 3140 3141 3142 3143 3143 3144 3145 3146 3148 3149 3150 3152 3153 3154 3155 3157 3158 3159 3161 3163 3165 3165 3166 3166 3166 3166 3166 3165 3165 3164 3164 3163 3162 3161 3161 3161 3161 3163 3165 3168 3171 3174 3176 3177 3179 3181 3182 3183 3185 3186 3187 3188 3189 3190 3191 3192 3193 3194 3195 3196 3197 3197
3147 3147 3146 3145 3145 3144 3144 3143 3142 3142 3141 3141 3141 3140 3140 3139 3139 3139 3139 3139 3139 3139 3139 3140 3140 3140 3140 3141 3141 3142 3143 3144 3145 3146 3147 3148 3149 3151 3152 3153 3155 3156 3157 3158 3161 3163 3165 3165 3166 3166 3166 3166 3166 3165 3165 3164 3164 3163 3162 3161 3161 3161 3161 3162 3165 3169 3172 3174 3176 3178 3179 3181 3182 3184 3185 3185 3187 3188 3189 3191 3192 3193 3194 3195 3196 3197 3197 3198
3148 3147 3146 3146 3145 3144 3144 3143 3142 3142 3142 3141 3141 3140 3140 3139 3139 3139 3139 3138 3138 3138 3139 3139 3139 3139 3140 3140 3141 3141 3142 3144 3145 3146 3147 3148 3149 3150 3151 3152 3154 3155 3157 3159 3161 3163 3164 3165 3166 3166 3166 3166 3165 3165 3165 3164 3164 3163 3162 3162 3161 3161 3162 3163 3166 3169 3171 3174 3176 3177 3179 3181 3182 3184 3185 3186 3187 3188 3189 3191 3193 3194 3194 3196 3197 3197 3198 3198
3148 3148 3147 3146 3145 3144 3144 3143 3142 3142 3142 3141 3141 3140 3140 3140 3139 3139 3139 3138 3138 3138 3138 3138 3139 3139 3139 3140 3140 3141 3142 3144 3145 3146 3147 3148 3149 3150 3151 3152 3153 3154 3156 3159 3161 3162 3164 3165 3165 3165 3165 3165 3165 3165 3165 3165 3164 3163 3162 3162 3161 3162 3163 3164 3167 3169 3172 3175 3176 3177 3180 3181 3182 3184 3185 3186 3188 3188 3189 3191 3193 3194 3195 3196 3197 3198 3198 3199
3149 3148 3147 3146 3145 3144 3144 3143 3142 3142 3141 3141 3141 3141 3140 3140 3139 3139 3139 3138 3138 3138 3138 3138 3138 3139 3139 3140 3140 3141 3142 3144 3145 3146 3147 3148 3149 3150 3151 3152 3152 3153 3155 3157 3159 3161 3162 3163 3164 3164 3165 3165 3165 3165 3165 3165 3164 3163 3163 3163 3162 3163 3165 3166 3168 3170 3173 3175 3176 3177 3180 3181 3182 3184 3185 3186 3188 3189 3189 3191 3193 3194 3195 3196 3197 3198 3199 3199
3149 3148 3147 3146 3145 3144 3143 3143 3142 3142 3141 3141 3141 3140 3140 3140 3139 3139 3138 3138 3138 3138 3138 3138 3138 3139 3139 3140 3140 3141 3142 3143 3144 3145 3146 3147 3148 3149 3151 3151 3152 3154 3155 3155 3157 3159 3161 3162 3164 3164 3165 3165 3165 3165 3165 3165 3165 3164 3164 3164 3164 3164 3166 3168 3169 3172 3174 3176 3177 3178 3180 3181 3182 3184 3185 3186 3188 3189 3190 3191 3193 3194 3195 3196 3197 3198 3200 3200
3149 3148 3147 3146 3145 3144 3143 3143 3142 3142 3141 3141 3141 3140 3140 3140 3139 3139 3139 3138 3138 3138 3138 3138 3139 3139 3139 3140 3140 3141 3142 3142 3143 3144 3145 3147 3148 3149 3150 3151 3152 3154 3155 3156 3157 3159 3160 3162 3163 3164 3164 3165 3165 3165 3165 3165 3165 3165 3165 3166 3166 3166 3167 3169 3170 3172 3174 3176 3177 3179 3180 3181 3182 3183 3185 3187 3188 3190 3191 3192 3193 3194 3194 3196 3197 3199 3200 3200
3150 3148 3147 3146 3145 3144 3143 3142 3142 3142 3141 3141 3141 3140 3140 3140 3139 3139 3139 3139 3139 3138 3138 3139 3139 3139 3140 3140 3140 3141 3141 3142 3142 3143 3144 3146 3147 3148 3150 3150 3151 3153 3154 3156 3157 3159 3160 3161 3163 3164 3164 3165 3165 3165 3166 3166 3166 3166 3166 3166 3166 3167 3167 3169 3171 3173 3175 3176 3178 3179 3180 3180 3182 3183 3185 3187 3188 3190 3191 3192 3193 3194 3194 3195 3197 3199 3200 3200
3150 3149 3148 3147 3146 3144 3143 3142 3142 3142 3141 3141 3141 3141 3140 3140 3139 3140 3140 3139 3139 3139 3139 3140 3140 3140 3140 3141 3141 3141 3141 3141 3142 3143 3144 3145 3146 3148 3149 3150 3151 3152 3153 3155 3157 3158 3160 3161 3162 3163 3164 3165 3165 3165 3166 3166 3166 3166 3166 3167 3167 3168 3168 3169 3171 3173 3175 3177 3178 3179 3180 3180 3182 3183 3185 3187 3188 3189 3190 3192 3193 3194 3194 3195 3197 3198 3200 3200
3151 3149 3148 3147 3146 3145 3144 3143 3142 3142 3142 3141 3141 3141 3141 3140 3140 3140 3140 3140 3140 3140 3140 3141 3141 3141 3141 3141 3141 3141 3141 3141 3141 3142 3144 3145 3146 3147 3148 3149 3150 3152 3153 3154 3156 3158 3159 3161 3162 3163 3164 3164 3165 3165 3166 3166 3166 3167 3167 3167 3168 3169 3169 3170 3172 3174 3175 3176 3178 3179 3180 3181 3182 3183 3185 3187 3188 3189 3190 3192 3193 3194 3195 3195 3196 3198 3200 3201
3151 3150 3149 3148 3147 3145 3144 3144 3143 3143 3143 3142 3142 3142 3142 3141 3141 3141 3141 3141 3141 3141 3141 3142 3142 3142 3142 3142 3142 3142 3142 3142 3142 3142 3144 3145 3146 3147 3148 3149 3150 3151 3153 3154 3156 3157 3159 3160 3161 3161 3162 3163 3165 3166 3167 3167 3167 3168 3168 3168 3168 3169 3170 3171 3172 3174 3175 3176 3178 3179 3180 3181 3182 3183 3185 3186 3188 3189 3190 3191 3192 3193 3194 3195 3196 3198 3199 3201
3152 3151 3150 3149 3147 3146 3145 3145 3145 3144 3144 3144 3144 3144 3143 3143 3142 3142 3142 3141 3141 3141 3142 3142 3142 3142 3142 3142 3142 3142 3143 3142 3142 3143 3144 3145 3146 3147 3148 3149 3150 3151 3152 3154 3156 3157 3158 3159 3159 3159 3161 3164 3167 3167 3168 3168 3168 3169 3169 3169 3170 3170 3171 3172 3173 3174 3176 3176 3177 3179 3180 3180 3182 3183 3184 3186 3187 3188 3189 3190 3191 3193 3194 3195 3196 3198 3199 3200
3153 3152 3151 3150 3149 3148 3147 3147 3147 3146 3146 3146 3146 3145 3145 3144 3144 3144 3143 3143 3142 3142 3142 3142 3142 3143 3143 3143 3143 3143 3143 3143 3143 3143 3144 3145 3146 3147 3148 3149 3150 3151 3152 3154 3155 3157 3158 3158 3158 3160 3164 3166 3168 3168 3168 3169 3169 3169 3170 3171 3171 3171 3172 3173 3173 3175 3176 3177 3177 3178 3179 3180 3181 3183 3184 3185 3185 3186 3187 3189 3190 3192 3193 3194 3196 3198 3199 3200
3154 3153 3152 3151 3150 3150 3149 3149 3148 3148 3148 3147 3147 3147 3147 3146 3145 3145 3144 3144 3143 3143 3143 3142 3143 3143 3143 3143 3143 3143 3143 3143 3143 3143 3144 3145 3146 3147 3148 3149 3150 3151 3152 3154 3155 3156 3157 3157 3159 3162 3164 3166 3167 3167 3168 3169 3169 3170 3171 3171 3171 3172 3172 3173 3174 3176 3176 3177 3178 3178 3179 3180 3180 3182 3183 3184 3185 3186 3187 3188 3190 3192 3193 3194 3196 3197 3198 3199
3154 3154 3153 3152 3152 3151 3151 3150 3150 3150 3149 3149 3149 3148 3148 3147 3146 3146 3145 3145 3144 3144 3144 3143 3143 3143 3143 3143 3143 3143 3143 3143 3144 3144 3144 3145 3146 3147 3148 3149 3150 3151 3153 3154 3155 3156 3156 3158 3160 3162 3164 3165 3165 3167 3167 3168 3169 3169 3170 3171 3171 3171 3172 3172 3173 3175 3176 3177 3177 3178 3179 3180 3180 3181 3182 3183 3184 3185 3186 3187 3189 3191 3192 3193 3195 3197 3198 3198
3155 3154 3154 3153 3153 3152 3152 3151 3151 3151 3151 3150 3150 3149 3148 3148 3147 3147 3146 3146 3145 3145 3145 3144 3144 3144 3144 3144 3144 3144 3144 3144 3144 3145 3145 3146 3147 3147 3148 3149 3150 3151 3153 3154 3155 3155 3156 3158 3160 3162 3163 3164 3165 3166 3166 3167 3168 3169 3169 3170 3170 3171 3172 3172 3173 3174 3175 3177 3177 3179 3180 3179 3179 3179 3180 3182 3183 3183 3185 3186 3187 3189 3191 3192 3193 3195 3197 3198
3155 3155 3155 3154 3154 3153 3153 3152 3152 3152 3152 3151 3151 3150 3149 3149 3148 3148 3147 3146 3146 3146 3145 3145 3145 3145 3144 3145 3145 3145 3145 3145 3145 3146 3146 3146 3147 3148 3149 3149 3150 3151 3152 3154 3155 3154 3156 3158 3160 3162 3163 3163 3164 3164 3165 3166 3167 3168 3168 3169 3169 3171 3172 3173 3173 3174 3175 3177 3177 3179 3180 3178 3177 3178 3179 3180 3181 3182 3183 3184 3185 3187 3189 3190 3191 3193 3195 3197
3156 3156 3155 3155 3154 3154 3154 3153 3153 3152 3152 3152 3151 3151 3150 3149 3149 3148 3147 3147 3147 3146 3146 3145 3145 3145 3145 3145 3146 3146 3146 3146 3146 3146 3147 3147 3148 3148 3149 3150 3150 3152 3152 3154 3154 3154 3156 3158 3160 3161 3162 3162 3163 3163 3164 3166 3167 3167 3166 3168 3169 3170 3172 3173 3173 3174 3175 3175 3176 3178 3178 3177 3176 3176 3176 3178 3179 3180 3181 3182 3183 3185 3186 3188 3190 3191 3193 3195
3156 3156 3156 3155 3155 3155 3154 3154 3154 3153 3153 3152 3152 3151 3151 3150 3149 3149 3148 3147 3147 3147 3147 3146 3146 3146 3146 3146 3146 3146 3146 3147 3147 3147 3147 3148 3148 3149 3149 3150 3151 3152 3153 3153 3154 3154 3155 3158 3160 3160 3161 3161 3161 3161 3163 3166 3167 3166 3166 3167 3169 3170 3171 3172 3173 3174 3174 3174 3176 3177 3177 3178 3175 3173 3175 3177 3177 3178 3178 3179 3180 3182 3184 3186 3188 3190 3192 3194
3156 3156 3156 3156 3156 3155 3155 3155 3154 3154 3153 3153 3152 3152 3151 3150 3150 3149 3148 3149 3149 3148 3148 3147 3147 3147 3147 3147 3147 3147 3147 3147 3147 3148 3148 3148 3148 3149 3150 3150 3151 3152 3153 3153 3153 3154 3155 3156 3158 3159 3159 3159 3159 3161 3163 3165 3167 3166 3166 3167 3168 3169 3170 3171 3173 3173 3173 3175 3175 3175 3177 3178 3174 3171 3173 3175 3175 3175 3174 3175 3177 3179 3181 3183 3186 3189 3191 3193
3156 3156 3156 3156 3156 3156 3156 3155 3155 3154 3153 3153 3153 3152 3151 3151 3151 3150 3149 3150 3150 3149 3149 3149 3148 3147 3147 3147 3147 3147 3147 3147 3148 3148 3148 3148 3149 3149 3150 3151 3151 3152 3152 3152 3152 3153 3154 3156 3157 3157 3157 3157 3159 3161 3162 3165 3166 3165 3166 3167 3167 3169 3170 3171 3173 3174 3174 3175 3174 3174 3176 3177 3173 3169 3170 3172 3172 3171 3169 3171 3174 3177 3179 3182 3184 3187 3189 3192
3155 3155 3156 3156 3156 3156 3156 3156 3155 3155 3154 3153 3153 3153 3152 3151 3151 3150 3151 3151 3150 3149 3149 3149 3148 3148 3148 3148 3147 3147 3148 3148 3148 3148 3148 3148 3149 3150 3150 3151 3151 3152 3152 3152 3152 3153 3154 3155 3155 3155 3156 3157 3159 3160 3161 3164 3165 3164 3165 3166 3167 3169 3171 3172 3174 3175 3177 3174 3173 3174 3175 3177 3174 3167 3167 3168 3167 3166 3167 3169 3172 3174 3177 3179 3182 3185 3187 3190
3155 3155 3155 3156 3156 3156 3156 3156 3155 3155 3154 3154 3153 3153 3153 3152 3151 3151 3152 3152 3150 3149 3149 3148 3148 3148 3148 3148 3147 3147 3148 3148 3148 3148 3148 3149 3149 3150 3150 3151 3151 3152 3152 3152 3152 3152 3152 3153 3154 3154 3155 3156 3157 3158 3159 3162 3163 3163 3164 3166 3167 3170 3173 3175 3175 3177 3178 3174 3172 3173 3174 3178 3175 3166 3165 3166 3165 3166 3167 3168 3169 3171 3174 3177 3180 3183 3185 3188
3154 3154 3155 3155 3156 3156 3156 3156 3155 3155 3155 3154 3153 3153 3153 3152 3152 3152 3152 3152 3151 3149 3149 3148 3148 3147 3147 3147 3147 3147 3147 3148 3148 3148 3148 3149 3149 3150 3150 3151 3151 3151 3151 3151 3151 3151 3151 3151 3152 3153 3154 3154 3155 3155 3157 3160 3161 3162 3163 3165 3167 3172 3175 3177 3176 3176 3175 3173 3173 3173 3174 3176 3171 3164 3165 3166 3166 3167 3167 3167 3169 3170 3172 3175 3178 3180 3183 3186
3153 3154 3154 3155 3155 3156 3156 3156 3155 3155 3155 3154 3153 3153 3153 3152 3153 3153 3153 3152 3151 3150 3149 3148 3147 3146 3146 3146 3146 3147 3147 3147 3148 3148 3148 3149 3149 3150 3150 3150 3150 3151 3151 3150 3150 3149 3149 3150 3151 3152 3152 3152 3153 3153 3154 3157 3159 3160 3162 3163 3165 3170 3175 3177 3177 3175 3173 3172 3171 3173 3174 3172 3166 3164 3165 3165 3165 3166 3166 3167 3168 3169 3171 3173 3176 3179 3182 3185
3152 3153 3154 3154 3155 3155 3156 3156 3155 3155 3155 3154 3153 3153 3152 3152 3153 3153 3153 3152 3151 3150 3149 3148 3147 3146 3146 3146 3147 3147 3147 3147 3148 3148 3148 3149 3149 3150 3150 3150 3150 3150 3150 3150 3149 3149 3149 3149 3150 3151 3151 3150 3151 3152 3153 3155 3158 3159 3161 3162 3162 3164 3167 3170 3171 3170 3170 3170 3171 3173 3173 3168 3164 3165 3165 3164 3164 3164 3164 3165 3166 3168 3170 3172 3175 3178 3180 3182
3152 3152 3153 3154 3154 3155 3155 3155 3155 3155 3154 3154 3154 3153 3152 3153 3153 3153 3152 3152 3151 3150 3149 3148 3148 3147 3147 3147 3147 3147 3147 3147 3148 3149 3149 3149 3150 3150 3150 3150 3150 3150 3150 3149 3149 3149 3149 3149 3149 3150 3150 3150 3150 3151 3153 3154 3157 3160 3161 3162 3161 3161 3162 3164 3165 3166 3167 3170 3171 3171 3168 3164 3163 3164 3163 3163 3163 3162 3163 3163 3164 3166 3168 3170 3172 3175 3178 3181
3151 3151 3152 3153 3153 3154 3155 3155 3155 3155 3154 3154 3154 3153 3153 3153 3153 3152 3152 3152 3151 3150 3149 3149 3148 3147 3147 3147 3147 3147 3148 3148 3148 3149 3149 3149 3150 3150 3150 3150 3150 3150 3150 3150 3149 3149 3149 3148 3149 3149 3149 3150 3150 3151 3152 3153 3155 3158 3160 3160 3160 3161 3161 3162 3164 3166 3167 3169 3169 3167 3164 3162 3163 3163 3163 3162 3162 3162 3162 3162 3163 3164 3166 3168 3169 3172 3175 3178
3150 3150 3151 3152 3152 3153 3154 3154 3154 3154 3154 3154 3154 3153 3153 3153 3153 3153 3152 3152 3151 3150 3149 3149 3148 3148 3147 3147 3147 3147 3148 3148 3149 3149 3149 3150 3150 3150 3150 3150 3150 3150 3150 3150 3150 3150 3149 3148 3148 3148 3148 3149 3150 3151 3153 3154 3154 3156 3157 3159 3160 3161 3161 3161 3163 3167 3168 3168 3167 3164 3162 3162 3162 3162 3161 3161 3161 3161 3161 3161 3163 3164 3165 3166 3168 3170 3173 3176
3149 3149 3150 3150 3151 3152 3153 3154 3154 3154 3154 3154 3154 3153 3153 3153 3153 3152 3152 3152 3152 3151 3150 3149 3149 3149 3148 3148 3147 3147 3148 3148 3149 3149 3149 3150 3150 3150 3150 3150 3150 3150 3150 3150 3150 3150 3149 3148 3148 3148 3148 3149 3150 3151 3152 3154 3155 3155 3156 3158 3159 3159 3159 3159 3162 3165 3167 3168 3166 3162 3161 3161 3161 3160 3160 3160 3160 3160 3160 3161 3162 3163 3164 3165 3167 3169 3172 3175
3148 3148 3149 3149 3150 3151 3152 3153 3154 3154 3154 3154 3153 3153 3153 3153 3153 3152 3152 3152 3152 3151 3150 3150 3149 3149 3149 3148 3148 3148 3148 3148 3149 3149 3149 3150 3150 3151 3151 3151 3151 3151 3150 3150 3150 3150 3150 3149 3149 3148 3148 3148 3149 3150 3152 3153 3154 3155 3156 3157 3157 3158 3158 3158 3160 3161 3163 3165 3165 3161 3160 3160 3160 3159 3159 3159 3160 3160 3160 3161 3161 3163 3165 3166 3167 3169 3171 3173
3147 3147 3148 3148 3149 3151 3152 3153 3153 3153 3153 3153 3153 3153 3153 3152 3152 3152 3152 3152 3152 3151 3151 3150 3150 3150 3149 3149 3148 3148 3148 3148 3148 3149 3149 3149 3150 3151 3151 3151 3151 3151 3151 3151 3151 3151 3150 3150 3149 3148 3148 3148 3149 3150 3152 3153 3153 3154 3155 3156 3157 3157 3157 3157 3159 3159 3159 3161 3162 3161 3159 3160 3159 3159 3159 3159 3159 3160 3160 3161 3161 3162 3164 3166 3167 3169 3170 3172
3147 3147 3147 3148 3149 3150 3151 3152 3152 3153 3153 3152 3152 3152 3152 3152 3152 3152 3152 3152 3152 3151 3151 3150 3150 3150 3150 3150 3149 3148 3148 3149 3149 3149 3149 3149 3150 3150 3150 3150 3151 3151 3151 3150 3150 3151 3151 3150 3150 3150 3149 3148 3150 3151 3152 3153 3153 3154 3155 3156 3156 3156 3156 3156 3157 3158 3158 3158 3159 3159 3159 3159 3159 3159 3159 3159 3159 3160 3160 3161 3161 3162 3163 3165 3166 3167 3168 3171
3146 3146 3146 3147 3148 3149 3150 3151 3151 3151 3151 3151 3151 3151 3151 3151 3151 3151 3151 3152 3151 3151 3151 3150 3150 3150 3150 3150 3150 3149 3149 3149 3149 3149 3150 3150 3150 3150 3150 3150 3150 3150 3150 3150 3150 3150 3151 3151 3151 3151 3151 3151 3151 3151 3151 3152 3153 3154 3155 3155 3155 3155 3155 3155 3156 3157 3157 3157 3158 3157 3158 3159 3159 3158 3159 3159 3160 3160 3160 3161 3161 3162 3162 3163 3164 3165 3165 3167
3146 3146 3146 3147 3148 3149 3150 3150 3150 3150 3151 3150 3151 3151 3151 3150 3150 3151 3151 3151 3151 3151 3150 3150 3150 3150 3150 3150 3150 3150 3149 3149 3149 3150 3150 3150 3150 3150 3150 3150 3150 3149 3149 3149 3150 3150 3151 3151 3151 3151 3152 3152 3152 3152 3152 3152 3153 3154 3155 3154 3154 3154 3154 3155 3155 3155 3156 3156 3157 3157 3158 3159 3159 3158 3159 3159 3160 3160 3160 3161 3162 3162 3163 3163 3163 3163 3163 3165
3146 3146 3146 3146 3147 3148 3149 3149 3149 3149 3149 3150 3150 3150 3150 3150 3150 3150 3150 3150 3150 3150 3150 3150 3150 3150 3150 3150 3150 3150 3150 3150 3150 3150 3150 3151 3151 3151 3151 3150 3150 3150 3149 3149 3149 3149 3150 3151 3151 3152 3153 3153 3152 3152 3152 3152 3152 3152 3153 3153 3152 3152 3153 3153 3154 3154 3155 3155 3156 3157 3158 3159 3158 3159 3159 3159 3160 3160 3160 3161 3161 3162 3163 3163 3162 3162 3162 3163
3145 3145 3146 3146 3146 3147 3148 3148 3148 3148 3148 3148 3148 3148 3149 3149 3149 3149 3149 3149 3149 3149 3149 3149 3149 3150 3150 3150 3150 3150 3150 3150 3151 3151 3151 3151 3151 3151 3151 3151 3150 3150 3149 3149 3148 3149 3151 3152 3151 3152 3154 3154 3154 3153 3152 3152 3151 3151 3152 3152 3151 3151 3151 3152 3152 3153 3153 3154 3155 3156 3157 3158 3158 3159 3159 3159 3160 3160 3160 3161 3161 3162 3163 3163 3162 3162 3162 3163
3144 3144 3145 3145 3146 3146 3147 3147 3147 3147 3147 3147 3147 3147 3148 3148 3148 3149 3148 3148 3148 3148 3149 3149 3149 3149 3150 3150 3150 3150 3150 3150 3151 3151 3151 3151 3151 3151 3151 3151 3150 3150 3149 3149 3149 3149 3151 3152 3152 3152 3154 3155 3154 3153 3152 3152 3151 3151 3151 3151 3150 3150 3149 3150 3151 3151 3151 3153 3154 3155 3156 3157 3158 3159 3159 3159 3160 3160 3160 3161 3162 3162 3162 3162 3162 3162 3163 3163
3142 3142 3143 3144 3145 3145 3145 3146 3146 3146 3146 3146 3146 3146 3146 3147 3147 3148 3148 3147 3147 3148 3148 3148 3148 3149 3149 3149 3149 3150 3150 3150 3151 3151 3151 3152 3151 3151 3151 3151 3150 3150 3150 3149 3149 3149 3151 3152 3152 3152 3154 3155 3154 3153 3153 3152 3151 3151 3151 3150 3150 3149 3148 3149 3149 3149 3150 3151 3153 3154 3155 3156 3157 3159 3159 3159 3160 3160 3161 3161 3162 3162 3162 3161 3162 3164 3164 3165
3140 3140 3141 3142 3143 3143 3144 3144 3145 3145 3145 3145 3145 3145 3145 3146 3146 3147 3147 3147 3147 3147 3147 3147 3147 3148 3148 3149 3149 3149 3150 3150 3151 3151 3151 3151 3151 3151 3151 3151 3151 3150 3150 3149 3149 3149 3150 3151 3151 3152 3153 3155 3155 3154 3154 3153 3152 3151 3151 3150 3150 3149 3148 3148 3148 3148 3149 3149 3151 3153 3154 3156 3157 3158 3159 3159 3159 3160 3161 3161 3162 3162 3161 3160 3163 3166 3167 3167
3137 3138 3139 3140 3140 3141 3142 3142 3143 3143 3143 3143 3143 3144 3144 3144 3145 3145 3145 3146 3146 3146 3146 3146 3147 3147 3148 3148 3148 3149 3149 3150 3150 3151 3151 3151 3151 3151 3151 3151 3150 3151 3150 3150 3150 3150 3149 3150 3150 3151 3153 3155 3155 3155 3155 3154 3153 3152 3152 3151 3151 3150 3149 3148 3148 3148 3148 3149 3150 3152 3154 3156 3157 3158 3158 3159 3159 3160 3160 3161 3162 3162 3161 3161 3163 3166 3167 3167
3135 3135 3136 3137 3138 3139 3140 3141 3141 3142 3141 3142 3142 3142 3143 3143 3144 3144 3144 3144 3145 3145 3145 3146 3146 3146 3147 3147 3148 3148 3148 3149 3149 3150 3150 3150 3150 3150 3151 3150 3150 3150 3150 3150 3150 3150 3150 3150 3150 3151 3152 3154 3155 3155 3155 3154 3153 3153 3153 3153 3152 3152 3151 3150 3149 3149 3149 3150 3151 3153 3154 3156 3157 3158 3158 3159 3159 3160 3160 3161 3162 3162 3162 3162 3163 3165 3166 3166
3133 3133 3134 3134 3135 3136 3138 3139 3139 3139 3139 3140 3140 3141 3141 3142 3142 3142 3143 3143 3144 3144 3144 3145 3145 3146 3146 3146 3147 3147 3147 3148 3149 3149 3149 3149 3149 3150 3150 3150 3150 3150 3150 3150 3150 3150 3149 3149 3150 3151 3152 3153 3154 3154 3154 3154 3154 3154 3154 3154 3154 3154 3153 3152 3151 3151 3151 3151 3153 3154 3155 3156 3157 3158 3158 3159 3160 3160 3161 3162 3162 3163 3163 3163 3164 3165 3165 3166
3131 3131 3131 3132 3132 3133 3135 3136 3137 3137 3137 3138 3139 3139 3140 3140 3141 3141 3141 3142 3143 3143 3143 3144 3144 3145 3145 3145 3146 3146 3147 3147 3148 3148 3148 3148 3149 3149 3149 3149 3149 3149 3149 3149 3149 3149 3149 3149 3150 3151 3151 3152 3153 3153 3154 3154 3154 3154 3154 3154 3155 3155 3155 3154 3154 3153 3153 3153 3154 3155 3156 3157 3157 3158 3158 3159 3160 3160 3161 3161 3162 3163 3163 3163 3164 3165 3165 3165